Overview Statistics Trail Chart Weather Telemetry Raw packets
 

This is the latest recevied weather packets stored in our database for station/object N9BLE. If no packets are shown the sender has not sent any weather packets the latest 10 day(s).

<< 1 2 3 4 5 >>
Time Temp. Humidity Pressure Rain* Wind** Luminosity Snow
1788573494 26.11° C 88% 1017.6 hPa 0 mm - 0 W/m² -
1788573194 26.67° C 88% 1017.6 hPa 0 mm - 0 W/m² -
1788572893 26.67° C 88% 1017.5 hPa 0 mm - 0 W/m² -
1788572589 26.67° C 88% 1017.6 hPa 0 mm - 0 W/m² -
1788572284 26.67° C 88% 1017.4 hPa 0 mm - 0 W/m² -
1788571980 26.67° C 87% 1017.4 hPa 0 mm - 0 W/m² -
1788571675 26.67° C 87% 1017.2 hPa 0 mm - 0 W/m² -
1788571371 26.67° C 87% 1017 hPa 0 mm - 0 W/m² -
1788571067 26.67° C 86% 1017.1 hPa 0 mm - 0 W/m² -
1788570763 26.67° C 85% 1017.2 hPa 0 mm - 0 W/m² -
1788570457 27.22° C 84% 1016.9 hPa 0 mm - 0 W/m² -
1788570152 27.22° C 84% 1016.7 hPa 0 mm - 0 W/m² -
1788569850 27.22° C 83% 1016.9 hPa 0 mm - 0 W/m² -
1788569545 27.78° C 83% 1016.6 hPa 0 mm - 0 W/m² -
1788569239 27.78° C 82% 1016.8 hPa 0 mm - 0 W/m² -
1788568934 28.33° C 81% 1016.8 hPa 0 mm - 0 W/m² -
1788568634 28.89° C 79% 1016.6 hPa 0 mm - 0 W/m² -
1788568330 28.89° C 78% 1016.9 hPa 0 mm - 1 W/m² -
1788568026 29.44° C 77% 1017 hPa 0 mm - 2 W/m² -
1788567725 29.44° C 76% 1017 hPa 0 mm - 4 W/m² -
1788567421 29.44° C 75% 1016.9 hPa 0 mm - 7 W/m² -
1788567120 29.44° C 75% 1017 hPa 0 mm - 11 W/m² -
1788566815 30° C 74% 1016.9 hPa 0 mm - 15 W/m² -
1788566511 30° C 74% 1016.8 hPa 0 mm - 22 W/m² -
1788566211 30° C 74% 1016.7 hPa 0 mm - 27 W/m² -

* Rain latest hour (hover to see other rain measurements)
** Current wind speed in m/s (hover to see current wind gust speed)